Guymon, OK

12:29 AM CDT on July 21, 2017 (GMT -0500)
Guymon Municipal

Weather History for KGUY - May, 2013

Change the Weather History Date:

Sunday, May 5, 2013

  Actual Average Record
Temperature  
Mean Temperature 51 °F 62 °F  
Max Temperature 67 °F 76 °F 98 °F (2012)
Min Temperature 34 °F 47 °F 34 °F (2013)
Degree Days  
Heating Degree Days 14 5  
Month to date heating degree days 81 27  
Since 1 July heating degree days 4294 4380  
Cooling Degree Days 0 2  
Month to date cooling degree days 0 6  
Year to date cooling degree days 25 21  
Moisture  
Dew Point 20 °F    
Average Humidity 37    
Maximum Humidity 59    
Minimum Humidity 15    
Precipitation  
Precipitation 0.00 in 0.07 in 1.51 in (2015)
Month to date precipitation 0.02 0.26  
Year to date precipitation 2.21 4.07  
Snow  
Snow 0.00 in - - ()
Month to date snowfall 0.3  
Since 1 July snowfall 22.3  
Snow Depth 0.00 in    
Sea Level Pressure  
Sea Level Pressure 30.12 in    
Wind  
Wind Speed 6 mph (North)    
Max Wind Speed 16 mph    
Max Gust Speed 21 mph    
Visibility 10 miles    
Events      
T = Trace of Precipitation, MM = Missing Value Source: NWS Daily Summary

Daily Weather History Graph

Daily Weather History Graph

Search for Another Location

Airport or City:

Trip Planner

Search our weather history database for the weather conditions in past years. The results will help you decide how hot, cold, wet, or windy it might be!

Date:

Astronomy

May. 05, 2013 Rise Set
Actual Time 6:47 AM CDT 8:38 PM CDT
Civil Twilight 6:19 AM CDT 9:06 PM CDT
Nautical Twilight 5:45 AM CDT 9:40 PM CDT
Astronomical Twilight 5:09 AM CDT 10:16 PM CDT
Moon 4:12 AM CDT (5/5) 4:45 PM CDT (5/5)
Length of Visible Light 14h 46m
Length of Day
13h 50m
Waning Crescent, 18% of the Moon is Illuminated
May 5
Waning Crescent
May 9
New
May 17
First Quarter
May 24
Full
May 31
Last Quarter

Hourly Weather History & Observations

Time (CDT) Temp. Windchill Dew Point Humidity Pressure Visibility Wind Dir Wind Speed Gust Speed Precip Events Conditions
12:53 AM 42.1 °F 38.4 °F 21.0 °F 43% 30.13 in 10.0 mi North 5.8 mph - N/A   Clear
1:53 AM 39.9 °F 36.7 °F 21.9 °F 49% 30.14 in 10.0 mi North 4.6 mph - N/A   Clear
2:53 AM 37.0 °F 32.4 °F 23.0 °F 57% 30.13 in 10.0 mi North 5.8 mph - N/A   Clear
3:53 AM 36.0 °F - 23.0 °F 59% 30.14 in 10.0 mi Calm Calm - N/A   Clear
4:53 AM 35.1 °F 29.3 °F 23.0 °F 61% 30.15 in 10.0 mi NNW 6.9 mph - N/A   Clear
5:53 AM 35.1 °F 29.3 °F 21.9 °F 59% 30.15 in 10.0 mi NNW 6.9 mph - N/A   Clear
6:53 AM 35.1 °F 31.0 °F 21.9 °F 59% 30.18 in 10.0 mi WNW 4.6 mph - N/A   Clear
7:53 AM 39.0 °F 32.3 °F 23.0 °F 53% 30.19 in 10.0 mi NNW 10.4 mph - N/A   Clear
8:53 AM 45.0 °F 39.3 °F 25.0 °F 46% 30.21 in 10.0 mi NNW 11.5 mph - N/A   Clear
9:53 AM 50.0 °F - 19.9 °F 31% 30.20 in 10.0 mi North 12.7 mph - N/A   Clear
10:53 AM 55.0 °F - 19.9 °F 25% 30.20 in 10.0 mi North 10.4 mph - N/A   Clear
11:53 AM 57.0 °F - 21.0 °F 25% 30.19 in 10.0 mi North 10.4 mph 19.6 mph N/A   Clear
1:53 PM 61.0 °F - 17.1 °F 18% 30.14 in 10.0 mi North 4.6 mph - N/A   Clear
2:53 PM 63.0 °F - 16.0 °F 16% 30.12 in 10.0 mi NNE 8.1 mph - N/A   Clear
3:53 PM 66.0 °F - 17.1 °F 15% 30.09 in 10.0 mi North 5.8 mph - N/A   Clear
4:53 PM 66.0 °F - 17.1 °F 15% 30.07 in 10.0 mi NNE 5.8 mph - N/A   Clear
5:53 PM 64.9 °F - 17.1 °F 16% 30.07 in 10.0 mi Calm Calm - N/A   Clear
6:53 PM 64.9 °F - 17.1 °F 16% 30.06 in 10.0 mi Calm Calm - N/A   Clear
7:53 PM 64.9 °F - 16.0 °F 15% 30.05 in 10.0 mi Calm Calm - N/A   Clear
8:53 PM 62.1 °F - 19.0 °F 19% 30.04 in 10.0 mi Calm Calm - N/A   Clear
9:53 PM 59.0 °F - 17.1 °F 20% 30.05 in 10.0 mi East 6.9 mph - N/A   Clear
10:53 PM 55.9 °F - 18.0 °F 23% 30.06 in 10.0 mi East 4.6 mph - N/A   Clear
11:53 PM 54.0 °F - 19.0 °F 25% 30.06 in 10.0 mi Calm Calm - N/A   Clear